This demonstration page uses our WeatherBlox Daily Observations layout. Learn more.

Hourly Observations for November 27, 2019

Temp ( °F °C ) Dew Point ( °F °C ) Humidity (%) Winds ( mph kmh ) Pressure ( in mb ) Visibility ( mi km ) Precip ( " mm )
12:15 am 00:15 undefined 25 -3.7 22 -5.5 87 87 NW 20 31 29.99 1016 N/A 0 0
12:35 am 00:35 Cloudy 27 -3 23 -5 86 86 NW 18 30 30.01 1016 N/A 0 0
12:55 am 00:55 undefined 25 -3.9 22 -5.7 87 87 NW 16 26 30.03 1017 N/A 0 0
1:15 am 01:15 undefined 24 -4.5 21 -6.1 89 89 WNW 17 28 30.05 1018 N/A 0 0
1:35 am 01:35 undefined 24 -4.3 21 -6.2 87 87 WNW 16 26 30.07 1018 N/A 0 0
1:55 am 01:55 undefined 24 -4.7 20 -6.4 88 88 WNW 17 28 30.07 1018 N/A 0 0
2:15 am 02:15 undefined 23 -4.8 20 -6.5 88 88 WNW 16 26 30.09 1019 N/A 0 0
2:35 am 02:35 undefined 24 -4.5 21 -6.3 87 87 WNW 13 20 30.11 1020 N/A 0 0
2:55 am 02:55 undefined 24 -4.4 21 -6.2 87 87 WNW 16 26 30.11 1020 N/A 0 0
3:15 am 03:15 undefined 24 -4.5 20 -6.4 87 87 WNW 12 19 30.13 1020 N/A 0 0
3:35 am 03:35 undefined 23 -4.9 20 -6.7 87 87 WNW 13 20 30.14 1021 N/A 0 0
3:55 am 03:55 Clear 24 -4.7 20 -6.5 87 87 WNW 14 22 30.15 1021 10 16.0934 0 0
4:15 am 04:15 Clear 24 -4.7 20 -6.7 86 86 W 13 20 30.18 1022 10 16.0934 0 0
4:35 am 04:35 Clear 23 -5 19 -7.1 85 85 W 14 22 30.2 1023 10 16.0934 0 0
4:55 am 04:55 Clear 23 -5 19 -7 86 86 WNW 12 19 30.21 1023 10 16.0934 0 0
5:15 am 05:15 Clear 23 -5.1 19 -7.1 86 86 W 13 20 30.2 1023 10 16.0934 0 0
5:35 am 05:35 Partly Cloudy 22 -5.3 19 -7.3 86 86 W 9 15 30.21 1023 10 16.0934 0 0
5:55 am 05:55 Clear 19 -7.4 16 -9 88 88 WNW 10 17 30.22 1023 10 16.0934 0 0
6:15 am 06:15 Clear 19 -7.1 17 -8.5 90 90 WNW 10 17 30.22 1024 10 16.0934 0 0
6:35 am 06:35 Clear 17 -8.1 14 -9.8 88 88 WNW 8 13 30.25 1024 10 16.0934 0 0
6:55 am 06:55 Clear 19 -7.5 16 -8.8 91 91 WNW 9 15 30.26 1025 10 16.0934 0 0
7:15 am 07:15 Clear 19 -7.5 15 -9.2 88 88 NW 10 17 30.28 1025 10 16.0934 0 0
7:35 am 07:35 Clear 17 -8.1 15 -9.4 90 90 NW 10 17 30.3 1026 10 16.0934 0 0
7:55 am 07:55 Sunny 21 -5.9 19 -7.5 89 89 NW 14 22 30.27 1025 10 16.0934 0 0
8:15 am 08:15 Sunny 22 -5.8 18 -8 85 85 WNW 10 17 30.3 1026 10 16.0934 0 0
8:35 am 08:35 Sunny 22 -5.7 18 -7.7 86 86 WNW 13 20 30.32 1027 10 16.0934 0 0
8:55 am 08:55 Sunny 22 -5.5 18 -7.6 85 85 WNW 8 13 30.34 1027 10 16.0934 0 0
9:15 am 09:15 Sunny 22 -5.7 18 -8 84 84 NW 10 17 30.34 1027 10 16.0934 0 0
9:35 am 09:35 Sunny 22 -5.6 18 -7.8 85 85 NW 6 9 30.36 1028 10 16.0934 0 0
9:55 am 09:55 Sunny 23 -5 19 -7.5 83 83 NW 9 15 30.36 1028 10 16.0934 0 0
10:15 am 10:15 Sunny 24 -4.5 19 -7 83 83 NW 8 13 30.38 1029 10 16.0934 0 0
10:35 am 10:35 Sunny 24 -4.2 19 -7 81 81 NW 10 17 30.38 1029 10 16.0934 0 0
10:55 am 10:55 Sunny 25 -4.1 20 -6.7 82 82 NNW 8 13 30.39 1029 10 16.0934 0 0
11:15 am 11:15 Sunny 25 -4 20 -6.7 82 82 NNW 8 13 30.38 1029 10 16.0934 0 0
11:35 am 11:35 Sunny 25 -3.8 20 -6.6 81 81 NNW 6 9 30.38 1029 10 16.0934 0 0
11:55 am 11:55 Sunny 26 -3.6 20 -6.5 81 81 NNW 8 13 30.37 1028 10 16.0934 0 0
12:15 pm 12:15 Sunny 26 -3.6 20 -6.6 80 80 NNW 5 7 30.37 1028 10 16.0934 0.01 0.254
12:35 pm 12:35 Sunny 26 -3.2 21 -6 81 81 N 8 13 30.36 1028 10 16.0934 0.01 0.254
12:55 pm 12:55 Sunny 28 -2.5 22 -5.7 79 79 N 14 22 30.34 1027 10 16.0934 0.01 0.254
1:15 pm 13:15 Sunny 27 -2.6 21 -6 78 78 N 10 17 30.35 1028 10 16.0934 0 0
1:35 pm 13:35 Sunny 28 -2.5 21 -6 77 77 N 3 6 30.36 1028 10 16.0934 0 0
1:55 pm 13:55 Sunny 28 -2.5 21 -6.1 77 77 N 6 9 30.37 1028 10 16.0934 0 0
2:15 pm 14:15 Sunny 28 -2.5 21 -6.1 77 77 N 5 7 30.38 1029 10 16.0934 0 0
2:35 pm 14:35 Sunny 28 -2.5 21 -6.3 75 75 N 3 6 30.39 1029 10 16.0934 0.01 0.254
2:55 pm 14:55 Sunny 27 -2.6 20 -6.5 75 75 N 5 7 30.4 1029 10 16.0934 0.01 0.254
3:15 pm 15:15 Sunny 27 -2.8 20 -6.7 75 75 Calm 30.41 1030 10 16.0934 0 0
3:35 pm 15:35 Sunny 27 -3 20 -6.6 76 76 Calm 30.42 1030 10 16.0934 0 0
3:55 pm 15:55 Sunny 26 -3.4 20 -6.6 79 79 Calm 30.42 1030 10 16.0934 0 0
4:15 pm 16:15 Sunny 25 -3.8 20 -6.7 81 81 Calm 30.43 1031 10 16.0934 0 0
4:35 pm 16:35 Sunny 23 -5.2 19 -7.4 85 85 Calm 30.44 1031 10 16.0934 0 0
4:55 pm 16:55 Sunny 20 -6.6 17 -8.2 89 89 NNE 5 7 30.43 1031 10 16.0934 0 0
5:15 pm 17:15 Clear 18 -8 16 -9.1 92 92 NNE 5 7 30.45 1031 10 16.0934 0 0
5:35 pm 17:35 Clear 17 -8.4 15 -9.3 93 93 Calm 30.47 1032 10 16.0934 0 0
5:55 pm 17:55 Clear 21 -6.2 19 -7.5 91 91 Calm 30.47 1032 10 16.0934 0 0
6:15 pm 18:15 Clear 17 -8.4 15 -9.3 93 93 Calm 30.49 1032 10 16.0934 0 0
6:35 pm 18:35 Clear 17 -8.4 15 -9.3 93 93 Calm 30.48 1032 10 16.0934 0 0
6:55 pm 18:55 Clear 16 -8.9 15 -9.4 96 96 Calm 30.51 1033 10 16.0934 0 0
7:15 pm 19:15 Clear 16 -8.7 15 -9.2 96 96 Calm 30.51 1033 10 16.0934 0 0
7:35 pm 19:35 Clear 16 -8.7 15 -9.2 96 96 Calm 30.52 1034 10 16.0934 0 0
7:55 pm 19:55 Clear 16 -8.8 15 -9.4 95 95 Calm 30.52 1034 10 16.0934 0 0
8:15 pm 20:15 Clear 15 -9.2 14 -9.8 95 95 ENE 3 6 30.52 1033 10 16.0934 0 0
8:35 pm 20:35 Clear 17 -8.2 17 -8.6 97 97 E 3 6 30.51 1033 10 16.0934 0 0
8:55 pm 20:55 Clear 18 -7.7 17 -8.6 93 93 Calm 30.51 1033 10 16.0934 0 0
9:15 pm 21:15 Clear 18 -7.7 17 -8.6 93 93 Calm 30.52 1034 10 16.0934 0 0
9:35 pm 21:35 Clear 18 -7.9 16 -8.7 94 94 ESE 3 6 30.51 1033 10 16.0934 0 0
9:55 pm 21:55 Clear 18 -7.6 17 -8.3 95 95 E 7 11 30.51 1033 10 16.0934 0 0
10:15 pm 22:15 Clear 19 -7 18 -7.8 94 94 E 3 6 30.51 1033 10 16.0934 0 0
10:35 pm 22:35 Clear 22 -5.6 20 -6.7 92 92 E 9 15 30.46 1032 10 16.0934 0 0
10:55 pm 22:55 Clear 23 -5.2 20 -6.8 89 89 E 9 15 30.46 1031 10 16.0934 0 0
11:15 pm 23:15 Clear 21 -6 19 -7.5 89 89 E 6 9 30.48 1032 10 16.0934 0 0
11:35 pm 23:35 Clear 22 -5.7 19 -7 91 91 E 6 9 30.49 1033 10 16.0934 0 0
11:55 pm 23:55 Clear 20 -6.5 19 -7.5 93 93 E 5 7 30.5 1033 10 16.0934 0 0

Powered by AerisWeather